Location: Newark
(41.8328°N, 0.5722°E)
Time: 13:28:20
(UTC+00:00)

Envisat - Visible Passes

Search period start: 23 January 2020 00:00
Search period end: 02 February 2020 00:00
Orbit: 764 x 766 km, 98.1° (Epoch: 23 January)

Date Brightness Start Highest point End Pass type
(mag) Time Alt. Az. Time Alt. Az. Time Alt. Az.
23 Jan 5.3 05:49:28 10° NE 05:53:44 26° E 05:57:58 10° SSE visible
23 Jan 5.2 18:43:34 10° SSW 18:47:50 27° W 18:52:08 10° NW visible
24 Jan 6.3 05:14:48 10° ENE 05:16:34 12° E 05:18:20 10° ESE visible
24 Jan 3.6 18:05:52 10° S 18:10:52 60° W 18:15:55 10° NNW visible
25 Jan 4.2 06:14:28 10° NNE 06:19:22 46° E 06:24:13 10° S visible
25 Jan 3.0 17:29:07 10° SSE 17:34:07 62° ENE 17:39:09 10° N visible
25 Jan 6.0 19:10:36 10° SW 19:13:33 15° W 19:16:33 10° NW visible
26 Jan 5.7 05:38:32 10° NE 05:42:20 21° E 05:46:08 10° SE visible
26 Jan 4.8 18:31:53 10° SSW 18:36:28 34° W 18:41:04 10° NNW visible
27 Jan 3.2 06:39:47 10° NNE 06:44:53 81° ESE 06:49:58 10° S visible
27 Jan 3.2 17:54:30 10° S 17:59:34 76° WSW 18:04:40 10° NNW visible
28 Jan 4.7 06:03:20 10° NNE 06:08:01 36° E 06:12:40 10° SSE visible
28 Jan 5.7 18:58:31 10° SW 19:02:09 20° W 19:05:49 10° NW visible
29 Jan 6.1 05:27:44 10° NE 05:30:56 17° E 05:34:07 10° SE visible
29 Jan 4.3 18:20:18 10° S 18:25:07 43° W 18:29:58 10° NNW visible
30 Jan 3.6 06:28:32 10° NNE 06:33:36 64° ESE 06:38:37 10° S visible
30 Jan 3.0 17:43:12 10° SSE 17:48:17 85° ENE 17:53:23 10° NNW visible
30 Jan 6.4 19:26:45 10° WSW 19:27:56 11° W 19:29:08 10° WNW visible
31 Jan 5.2 05:52:15 10° NE 05:56:39 29° E 06:01:01 10° SSE visible
31 Jan 5.4 18:46:38 10° SSW 18:50:46 25° W 18:54:54 10° NW visible
01 Feb 6.3 05:17:14 10° ENE 05:19:31 13° E 05:21:48 10° ESE visible
01 Feb 3.8 18:08:49 10° S 18:13:47 55° W 18:18:47 10° NNW visible
